This demonstration page uses our WeatherBlox Daily Observations layout. Learn more.

Left ArrowRight Arrow

38.88101, -77.10428

Hourly Observations for April 9, 2021

Temp ( °F °C ) Dew Point ( °F °C ) Humidity (%) Winds ( mph kmh ) Pressure ( in mb ) Visibility ( mi km ) Precip ( " mm )
12:52 am 00:52 Cloudy 57 13.9 46 7.8 67 67 SSE 8 13 30.08 1019 10 16 0.00 0.00
1:52 am 01:52 Cloudy 57 13.9 46 7.8 67 67 S 5 7 30.07 1018 10 16 0.00 0.00
2:52 am 02:52 Cloudy with Light Rain 56 13.3 48 8.9 75 75 ESE 8 13 30.08 1019 10 16 0.00 0.00
3:52 am 03:52 Cloudy with Light Rain 54 12.2 50 10 87 87 NE 6 9 30.08 1019 4 6 0.15 3.81
4:52 am 04:52 Cloudy with Rain 53 11.7 51 10.6 93 93 E 6 9 30.07 1018 4 6 0.24 6.10
5:28 am 05:28 Cloudy with Light Rain 53 11.7 51 10.6 93 93 NE 6 9 30.07 1018 7 11 0.17 4.32
5:52 am 05:52 Cloudy with Light Rain 54 12.2 51 10.6 90 90 E 7 11 30.07 1018 6 10 0.22 5.59
6:01 am 06:01 Cloudy 54 12.2 51 10.6 90 90 E 7 11 30.08 1019 10 16 0.00 0.00
6:11 am 06:11 Cloudy 54 12.2 51 10.6 90 90 ESE 3 6 30.08 1019 10 16 0.00 0.00
6:52 am 06:52 Cloudy with Light Rain 54 12.2 51 10.6 90 90 ESE 5 7 30.09 1019 10 16 0.00 0.00
7:23 am 07:23 Cloudy 54 12.2 51 10.6 90 90 ESE 5 7 30.10 1019 10 16 0.00 0.00
7:42 am 07:42 Cloudy 54 12.2 51 10.6 90 90 E 5 7 30.10 1019 10 16 0.00 0.00
7:52 am 07:52 Cloudy 54 12.2 51 10.6 90 90 E 5 7 30.10 1019 10 16 0.00 0.00
8:52 am 08:52 Cloudy 54 12.2 51 10.6 90 90 E 3 6 30.11 1020 10 16 0.00 0.00
9:52 am 09:52 Cloudy 55 12.8 52 11.1 90 90 E 5 7 30.12 1020 10 16 0.00 0.00
10:52 am 10:52 Cloudy 56 13.3 53 11.7 90 90 ENE 5 7 30.12 1020 10 16 0.00 0.00
11:52 am 11:52 Cloudy 57 13.9 53 11.7 87 87 ESE 6 9 30.11 1020 10 16 0.00 0.00
12:52 pm 12:52 Cloudy 58 14.4 54 12.2 87 87 E 8 13 30.10 1019 10 16 0.00 0.00
1:43 pm 13:43 Cloudy 59 15 54 12.2 83 83 ESE 6 9 30.09 1019 10 16 0.00 0.00
1:52 pm 13:52 Cloudy 59 15 54 12.2 83 83 E 7 11 30.09 1019 10 16 0.00 0.00
2:52 pm 14:52 Cloudy 60 15.6 55 12.8 84 84 E 9 15 30.07 1018 10 16 0.00 0.00
3:31 pm 15:31 Cloudy 61 16.1 55 12.8 81 81 ESE 8 13 30.07 1018 10 16 0.00 0.00
3:52 pm 15:52 Cloudy 61 16.1 55 12.8 81 81 E 9 15 30.06 1018 10 16 0.00 0.00
4:52 pm 16:52 Cloudy 61 16.1 55 12.8 81 81 ENE 7 11 30.07 1018 10 16 0.00 0.00
5:17 pm 17:17 Cloudy with Nearby Thunderstorms 61 16.1 55 12.8 81 81 E 9 15 30.06 1018 10 16 0.00 0.00
5:32 pm 17:32 Cloudy 61 16.1 55 12.8 81 81 NE 13 20 30.06 1018 10 16 0.00 0.00
5:38 pm 17:38 Cloudy with Nearby Thunderstorms 61 16.1 55 12.8 81 81 NE 13 20 30.06 1018 10 16 0.00 0.00
5:52 pm 17:52 Cloudy with Nearby Thunderstorms 60 15.6 55 12.8 84 84 NE 13 20 30.05 1018 10 16 0.00 0.00
6:04 pm 18:04 Cloudy 60 15.6 55 12.8 84 84 ENE 12 19 30.05 1018 10 16 0.00 0.00
6:52 pm 18:52 Cloudy 60 15.6 55 12.8 84 84 NE 8 13 30.06 1018 10 16 0.00 0.00
7:52 pm 19:52 Cloudy 60 15.6 54 12.2 80 80 ENE 8 13 30.06 1018 10 16 0.00 0.00
8:52 pm 20:52 Cloudy 59 15 54 12.2 83 83 NE 9 15 30.05 1018 10 16 0.00 0.00
9:52 pm 21:52 Cloudy 59 15 54 12.2 83 83 ENE 9 15 30.06 1018 10 16 0.00 0.00
10:40 pm 22:40 Cloudy 59 15 54 12.2 83 83 NE 8 13 30.07 1018 10 16 0.00 0.00
10:52 pm 22:52 Cloudy 59 15 54 12.2 83 83 NE 9 15 30.06 1018 10 16 0.00 0.00
11:52 pm 23:52 Cloudy 58 14.4 53 11.7 84 84 NE 9 15 30.06 1018 10 16 0.00 0.00

Powered by AerisWeather